Time,TemperatureF,DewpointF,PressureIn,WindDirection,WindDirectionDegrees,WindSpeedMPH,WindSpeedGustMPH,Humidity,HourlyPrecipIn,Conditions,Clouds,dailyrainin,SoftwareType,DateUTC
2013-05-26 00:02:00,72.0,66.0,29.99,SSE,160,14.0,23.0,83,-99.99,,,-99.99,,2013-05-26 05:02:00,
2013-05-26 00:12:00,70.0,64.0,29.99,SSE,160,13.0,22.0,82,-99.99,,,-99.99,,2013-05-26 05:12:00,
2013-05-26 00:22:00,70.0,64.0,29.99,SSE,160,13.0,-999.0,82,-99.99,,,-99.99,,2013-05-26 05:22:00,
2013-05-26 00:32:00,70.0,64.0,29.99,SSE,150,10.0,-999.0,82,-99.99,,,-99.99,,2013-05-26 05:32:00,
2013-05-26 00:42:00,70.0,64.0,29.99,SE,140,9.0,-999.0,82,-99.99,,,-99.99,,2013-05-26 05:42:00,
2013-05-26 00:52:00,70.0,66.0,29.99,SSE,150,10.0,-999.0,88,-99.99,,,-99.99,,2013-05-26 05:52:00,
2013-05-26 01:01:00,70.0,66.0,29.99,SSE,150,10.0,-999.0,88,-99.99,,,-99.99,,2013-05-26 06:01:00,
2013-05-26 01:12:00,68.0,66.0,29.99,SSE,150,13.0,17.0,93,-99.99,,,-99.99,,2013-05-26 06:12:00,
2013-05-26 01:21:00,68.0,66.0,29.99,SSE,150,12.0,18.0,93,-99.99,,,-99.99,,2013-05-26 06:21:00,
2013-05-26 01:32:00,70.0,66.0,30.00,SSE,160,15.0,24.0,88,-99.99,,,-99.99,,2013-05-26 06:32:00,
2013-05-26 01:42:00,70.0,66.0,29.99,SSE,160,15.0,20.0,88,-99.99,,,-99.99,,2013-05-26 06:42:00,
2013-05-26 01:52:00,70.0,66.0,29.99,SSE,160,13.0,22.0,88,-99.99,,,-99.99,,2013-05-26 06:52:00,
2013-05-26 02:01:00,70.0,66.0,29.99,SSE,160,13.0,22.0,88,-99.99,,,-99.99,,2013-05-26 07:01:00,
2013-05-26 02:11:00,70.0,66.0,29.99,SSE,160,16.0,22.0,88,-99.99,,,-99.99,,2013-05-26 07:11:00,
2013-05-26 02:21:00,70.0,66.0,29.98,SSE,160,14.0,23.0,88,-99.99,,,-99.99,,2013-05-26 07:21:00,
2013-05-26 02:31:00,70.0,66.0,29.98,SSE,150,14.0,20.0,88,-99.99,,,-99.99,,2013-05-26 07:31:00,
2013-05-26 02:42:00,70.0,66.0,29.98,SSE,150,10.0,20.0,88,-99.99,,,-99.99,,2013-05-26 07:42:00,
2013-05-26 02:52:00,70.0,66.0,29.98,SE,140,12.0,20.0,88,-99.99,,,-99.99,,2013-05-26 07:52:00,
2013-05-26 03:01:00,70.0,66.0,29.98,SE,140,12.0,20.0,88,-99.99,,,-99.99,,2013-05-26 08:01:00,
2013-05-26 03:11:00,68.0,66.0,29.98,SSE,150,9.0,-999.0,93,-99.99,,,-99.99,,2013-05-26 08:11:00,
2013-05-26 03:21:00,68.0,64.0,29.98,SSE,150,10.0,-999.0,88,-99.99,,,-99.99,,2013-05-26 08:21:00,
2013-05-26 03:32:00,68.0,64.0,29.98,SSE,150,10.0,-999.0,88,-99.99,,,-99.99,,2013-05-26 08:32:00,
2013-05-26 03:42:00,68.0,64.0,29.98,SE,140,10.0,-999.0,88,-99.99,,,-99.99,,2013-05-26 08:42:00,
2013-05-26 03:53:00,68.0,64.0,29.98,SE,140,10.0,-999.0,88,-99.99,,,-99.99,,2013-05-26 08:53:00,
2013-05-26 04:01:00,68.0,64.0,29.98,SE,140,10.0,-999.0,88,-99.99,,,-99.99,,2013-05-26 09:01:00,
2013-05-26 04:11:00,68.0,64.0,29.98,SSE,150,10.0,-999.0,88,-99.99,,,-99.99,,2013-05-26 09:11:00,
2013-05-26 04:21:00,68.0,64.0,29.97,SE,140,9.0,-999.0,88,-99.99,,,-99.99,,2013-05-26 09:21:00,
2013-05-26 04:33:00,68.0,64.0,29.97,SE,140,10.0,-999.0,88,-99.99,,,-99.99,,2013-05-26 09:33:00,
2013-05-26 04:42:00,66.0,64.0,29.97,SE,140,10.0,-999.0,93,-99.99,,,-99.99,,2013-05-26 09:42:00,
2013-05-26 04:52:00,66.0,64.0,29.98,SSE,150,8.0,-999.0,93,-99.99,,,-99.99,,2013-05-26 09:52:00,
2013-05-26 05:02:00,66.0,64.0,29.98,SSE,150,8.0,-999.0,93,-99.99,,,-99.99,,2013-05-26 10:02:00,
2013-05-26 05:12:00,68.0,66.0,29.98,South,170,7.0,-999.0,93,-99.99,,,-99.99,,2013-05-26 10:12:00,
2013-05-26 05:23:00,68.0,66.0,29.98,SSE,160,10.0,-999.0,93,-99.99,,,-99.99,,2013-05-26 10:23:00,
2013-05-26 05:32:00,68.0,66.0,29.98,SSE,150,10.0,-999.0,93,-99.99,,,-99.99,,2013-05-26 10:32:00,
2013-05-26 05:42:00,68.0,66.0,29.98,SSE,160,12.0,-999.0,93,-99.99,,,-99.99,,2013-05-26 10:42:00,
2013-05-26 05:52:00,68.0,66.0,29.98,SSE,150,10.0,-999.0,93,-99.99,,,-99.99,,2013-05-26 10:52:00,
2013-05-26 06:03:00,68.0,66.0,29.98,SSE,150,10.0,-999.0,93,-99.99,,,-99.99,,2013-05-26 11:03:00,
2013-05-26 06:11:00,66.0,64.0,29.98,SSE,160,9.0,-999.0,93,-99.99,,,-99.99,,2013-05-26 11:11:00,
2013-05-26 06:22:00,66.0,64.0,29.97,SSE,160,12.0,-999.0,93,-99.99,,,-99.99,,2013-05-26 11:22:00,
2013-05-26 06:32:00,66.0,64.0,29.97,SSE,160,12.0,-999.0,93,-99.99,,,-99.99,,2013-05-26 11:32:00,
2013-05-26 06:42:00,66.0,64.0,29.98,SSE,160,12.0,-999.0,93,-99.99,,,-99.99,,2013-05-26 11:42:00,
2013-05-26 06:52:00,66.0,66.0,29.97,SSE,160,12.0,-999.0,100,-99.99,,,-99.99,,2013-05-26 11:52:00,
2013-05-26 07:02:00,66.0,66.0,29.97,SSE,160,12.0,-999.0,100,-99.99,,,-99.99,,2013-05-26 12:02:00,
2013-05-26 07:11:00,66.0,66.0,29.96,SSE,160,13.0,-999.0,100,-99.99,,,-99.99,,2013-05-26 12:11:00,
2013-05-26 07:21:00,66.0,66.0,29.95,SSE,160,13.0,-999.0,100,-99.99,,,-99.99,,2013-05-26 12:21:00,
2013-05-26 07:32:00,68.0,66.0,29.95,SSE,160,12.0,18.0,93,-99.99,,,-99.99,,2013-05-26 12:32:00,
2013-05-26 07:42:00,68.0,66.0,29.96,South,170,14.0,-999.0,93,-99.99,,,-99.99,,2013-05-26 12:42:00,
2013-05-26 07:52:00,68.0,66.0,29.96,South,170,14.0,17.0,93,-99.99,,,-99.99,,2013-05-26 12:52:00,
2013-05-26 08:02:00,68.0,66.0,29.96,South,170,14.0,17.0,93,-99.99,,,-99.99,,2013-05-26 13:02:00,
2013-05-26 08:11:00,68.0,66.0,29.95,SSE,160,16.0,-999.0,93,-99.99,,,-99.99,,2013-05-26 13:11:00,
2013-05-26 08:21:00,68.0,66.0,29.95,SSE,160,16.0,-999.0,93,-99.99,,,-99.99,,2013-05-26 13:21:00,
2013-05-26 08:32:00,70.0,66.0,29.95,South,170,15.0,20.0,88,-99.99,,,-99.99,,2013-05-26 13:32:00,
2013-05-26 08:42:00,70.0,66.0,29.95,SSE,160,16.0,22.0,88,-99.99,,,-99.99,,2013-05-26 13:42:00,
2013-05-26 08:52:00,70.0,66.0,29.94,South,180,16.0,21.0,88,-99.99,,,-99.99,,2013-05-26 13:52:00,
2013-05-26 09:02:00,70.0,66.0,29.94,South,180,16.0,21.0,88,-99.99,,,-99.99,,2013-05-26 14:02:00,
2013-05-26 09:11:00,70.0,66.0,29.94,South,170,17.0,24.0,88,-99.99,,,-99.99,,2013-05-26 14:11:00,
2013-05-26 09:21:00,72.0,66.0,29.95,South,170,16.0,23.0,83,-99.99,,,-99.99,,2013-05-26 14:21:00,
2013-05-26 09:32:00,72.0,66.0,29.95,South,180,15.0,22.0,83,-99.99,,,-99.99,,2013-05-26 14:32:00,
2013-05-26 09:41:00,72.0,66.0,29.95,South,180,15.0,22.0,83,-99.99,,,-99.99,,2013-05-26 14:41:00,
2013-05-26 09:52:00,72.0,66.0,29.96,South,190,15.0,23.0,83,-99.99,,,-99.99,,2013-05-26 14:52:00,
2013-05-26 10:01:00,72.0,66.0,29.96,South,190,15.0,23.0,83,-99.99,,,-99.99,,2013-05-26 15:01:00,
2013-05-26 10:12:00,72.0,68.0,29.96,South,190,17.0,22.0,88,-99.99,,,-99.99,,2013-05-26 15:12:00,
2013-05-26 10:22:00,72.0,68.0,29.96,South,190,17.0,22.0,88,-99.99,,,-99.99,,2013-05-26 15:22:00,
2013-05-26 10:33:00,72.0,68.0,29.96,South,190,16.0,22.0,88,-99.99,,,-99.99,,2013-05-26 15:33:00,
2013-05-26 10:43:00,72.0,68.0,29.96,SSW,200,14.0,22.0,88,-99.99,,,-99.99,,2013-05-26 15:43:00,
2013-05-26 10:53:00,73.0,68.0,29.96,South,190,13.0,22.0,83,-99.99,,,-99.99,,2013-05-26 15:53:00,
2013-05-26 11:03:00,73.0,68.0,29.96,South,190,13.0,22.0,83,-99.99,,,-99.99,,2013-05-26 16:03:00,
2013-05-26 11:12:00,73.0,68.0,29.96,South,180,16.0,22.0,83,-99.99,,,-99.99,,2013-05-26 16:12:00,
2013-05-26 11:23:00,73.0,70.0,29.96,South,180,14.0,20.0,88,-99.99,,,-99.99,,2013-05-26 16:23:00,
2013-05-26 11:33:00,75.0,70.0,29.95,South,170,17.0,23.0,83,-99.99,,,-99.99,,2013-05-26 16:33:00,
2013-05-26 11:42:00,75.0,70.0,29.95,South,180,16.0,23.0,83,-99.99,,,-99.99,,2013-05-26 16:42:00,
2013-05-26 11:52:00,77.0,70.0,29.95,South,170,15.0,22.0,78,-99.99,,,-99.99,,2013-05-26 16:52:00,
2013-05-26 12:02:00,77.0,70.0,29.95,South,170,15.0,22.0,78,-99.99,,,-99.99,,2013-05-26 17:02:00,
2013-05-26 12:11:00,79.0,70.0,29.94,South,170,17.0,24.0,73,-99.99,,,-99.99,,2013-05-26 17:11:00,
2013-05-26 12:22:00,81.0,70.0,29.94,South,170,20.0,25.0,69,-99.99,,,-99.99,,2013-05-26 17:22:00,
2013-05-26 12:32:00,81.0,70.0,29.93,South,170,15.0,24.0,69,-99.99,,,-99.99,,2013-05-26 17:32:00,
2013-05-26 12:42:00,81.0,70.0,29.93,SSE,150,15.0,24.0,69,-99.99,,,-99.99,,2013-05-26 17:42:00,
2013-05-26 12:52:00,81.0,70.0,29.93,South,170,17.0,25.0,69,-99.99,,,-99.99,,2013-05-26 17:52:00,
2013-05-26 13:01:00,81.0,70.0,29.93,South,170,17.0,25.0,69,-99.99,,,-99.99,,2013-05-26 18:01:00,
2013-05-26 13:12:00,81.0,70.0,29.92,SE,140,20.0,27.0,69,-99.99,,,-99.99,,2013-05-26 18:12:00,
2013-05-26 13:21:00,82.0,72.0,29.92,South,170,18.0,27.0,69,-99.99,,,-99.99,,2013-05-26 18:21:00,
2013-05-26 13:32:00,82.0,70.0,29.92,South,170,17.0,24.0,65,-99.99,,,-99.99,,2013-05-26 18:32:00,
2013-05-26 13:42:00,82.0,70.0,29.92,SSE,160,14.0,28.0,65,-99.99,,,-99.99,,2013-05-26 18:42:00,
2013-05-26 13:52:00,82.0,70.0,29.92,SSE,150,15.0,28.0,65,-99.99,,,-99.99,,2013-05-26 18:52:00,
2013-05-26 14:01:00,82.0,70.0,29.92,SSE,150,15.0,28.0,65,-99.99,,,-99.99,,2013-05-26 19:01:00,
2013-05-26 14:11:00,84.0,70.0,29.92,SSE,150,21.0,28.0,62,-99.99,,,-99.99,,2013-05-26 19:11:00,
2013-05-26 14:22:00,84.0,70.0,29.91,SSE,150,18.0,28.0,62,-99.99,,,-99.99,,2013-05-26 19:22:00,
2013-05-26 14:32:00,82.0,70.0,29.90,SSE,160,17.0,25.0,65,-99.99,,,-99.99,,2013-05-26 19:32:00,
2013-05-26 14:42:00,84.0,70.0,29.90,SSE,160,20.0,27.0,62,-99.99,,,-99.99,,2013-05-26 19:42:00,
2013-05-26 14:52:00,84.0,70.0,29.90,SSE,150,18.0,25.0,62,-99.99,,,-99.99,,2013-05-26 19:52:00,
2013-05-26 15:02:00,84.0,70.0,29.90,SSE,150,18.0,25.0,62,-99.99,,,-99.99,,2013-05-26 20:02:00,
2013-05-26 15:11:00,84.0,70.0,29.88,SSE,160,16.0,30.0,62,-99.99,,,-99.99,,2013-05-26 20:11:00,
2013-05-26 15:21:00,84.0,70.0,29.88,SSE,160,22.0,27.0,62,-99.99,,,-99.99,,2013-05-26 20:21:00,
2013-05-26 15:32:00,84.0,70.0,29.88,SSE,160,22.0,27.0,62,-99.99,,,-99.99,,2013-05-26 20:32:00,
2013-05-26 15:41:00,84.0,70.0,29.88,SE,140,22.0,29.0,62,-99.99,,,-99.99,,2013-05-26 20:41:00,
2013-05-26 15:52:00,84.0,70.0,29.87,SSE,150,22.0,30.0,62,-99.99,,,-99.99,,2013-05-26 20:52:00,
2013-05-26 16:01:00,84.0,70.0,29.87,SSE,150,22.0,30.0,62,-99.99,,,-99.99,,2013-05-26 21:01:00,
2013-05-26 16:11:00,84.0,70.0,29.86,SSE,150,17.0,29.0,62,-99.99,,,-99.99,,2013-05-26 21:11:00,
2013-05-26 16:22:00,84.0,70.0,29.86,SSE,160,21.0,27.0,62,-99.99,,,-99.99,,2013-05-26 21:22:00,
2013-05-26 16:33:00,84.0,70.0,29.87,SSE,150,17.0,28.0,62,-99.99,,,-99.99,,2013-05-26 21:33:00,
2013-05-26 16:43:00,84.0,70.0,29.87,SSE,160,18.0,28.0,62,-99.99,,,-99.99,,2013-05-26 21:43:00,
2013-05-26 16:53:00,82.0,70.0,29.87,SSE,150,21.0,28.0,65,-99.99,,,-99.99,,2013-05-26 21:53:00,
2013-05-26 17:02:00,82.0,70.0,29.87,SSE,150,21.0,28.0,65,-99.99,,,-99.99,,2013-05-26 22:02:00,
2013-05-26 17:12:00,84.0,70.0,29.86,SSE,150,21.0,27.0,62,-99.99,,,-99.99,,2013-05-26 22:12:00,
2013-05-26 17:23:00,84.0,70.0,29.86,SSE,160,17.0,32.0,62,-99.99,,,-99.99,,2013-05-26 22:23:00,
2013-05-26 17:33:00,84.0,70.0,29.86,SSE,150,15.0,27.0,62,-99.99,,,-99.99,,2013-05-26 22:33:00,
2013-05-26 17:42:00,84.0,70.0,29.86,SSE,160,22.0,29.0,62,-99.99,,,-99.99,,2013-05-26 22:42:00,
2013-05-26 17:53:00,84.0,70.0,29.86,SE,140,22.0,31.0,62,-99.99,,,-99.99,,2013-05-26 22:53:00,
2013-05-26 18:02:00,84.0,70.0,29.86,SE,140,22.0,31.0,62,-99.99,,,-99.99,,2013-05-26 23:02:00,
2013-05-26 18:11:00,84.0,70.0,29.86,SSE,160,24.0,30.0,62,-99.99,,,-99.99,,2013-05-26 23:11:00,
2013-05-26 18:22:00,82.0,70.0,29.85,SSE,160,20.0,27.0,65,-99.99,,,-99.99,,2013-05-26 23:22:00,
2013-05-26 18:32:00,82.0,70.0,29.85,SSE,160,18.0,25.0,65,-99.99,,,-99.99,,2013-05-26 23:32:00,
2013-05-26 18:43:00,82.0,70.0,29.84,SSE,160,18.0,28.0,65,-99.99,,,-99.99,,2013-05-26 23:43:00,
2013-05-26 18:51:00,82.0,70.0,29.85,SSE,150,21.0,28.0,65,-99.99,,,-99.99,,2013-05-26 23:51:00,
2013-05-26 19:02:00,82.0,70.0,29.85,SSE,150,21.0,28.0,65,-99.99,,,-99.99,,2013-05-27 00:02:00,
2013-05-26 19:11:00,82.0,70.0,29.84,SSE,150,17.0,25.0,65,-99.99,,,-99.99,,2013-05-27 00:11:00,
2013-05-26 19:21:00,82.0,70.0,29.84,SSE,150,13.0,28.0,65,-99.99,,,-99.99,,2013-05-27 00:21:00,
2013-05-26 19:32:00,81.0,70.0,29.85,SE,140,16.0,23.0,69,-99.99,,,-99.99,,2013-05-27 00:32:00,
2013-05-26 19:41:00,81.0,70.0,29.85,SE,140,18.0,28.0,69,-99.99,,,-99.99,,2013-05-27 00:41:00,
2013-05-26 19:52:00,81.0,70.0,29.85,SSE,150,16.0,23.0,69,-99.99,,,-99.99,,2013-05-27 00:52:00,
2013-05-26 20:01:00,81.0,70.0,29.85,SSE,150,16.0,23.0,69,-99.99,,,-99.99,,2013-05-27 01:01:00,
2013-05-26 20:11:00,81.0,70.0,29.85,SE,140,16.0,27.0,69,-99.99,,,-99.99,,2013-05-27 01:11:00,
2013-05-26 20:22:00,79.0,70.0,29.85,SE,140,14.0,28.0,73,-99.99,,,-99.99,,2013-05-27 01:22:00,
2013-05-26 20:31:00,79.0,70.0,29.85,SSE,150,13.0,17.0,73,-99.99,,,-99.99,,2013-05-27 01:31:00,
2013-05-26 20:42:00,79.0,70.0,29.85,SE,140,15.0,20.0,73,-99.99,,,-99.99,,2013-05-27 01:42:00,
2013-05-26 20:52:00,79.0,70.0,29.85,SSE,150,15.0,24.0,73,-99.99,,,-99.99,,2013-05-27 01:52:00,
2013-05-26 21:01:00,79.0,70.0,29.85,SSE,150,15.0,24.0,73,-99.99,,,-99.99,,2013-05-27 02:01:00,
2013-05-26 21:11:00,77.0,70.0,29.85,SSE,150,16.0,21.0,78,-99.99,,,-99.99,,2013-05-27 02:11:00,
2013-05-26 21:21:00,77.0,70.0,29.85,SSE,150,18.0,25.0,78,-99.99,,,-99.99,,2013-05-27 02:21:00,
2013-05-26 21:32:00,77.0,70.0,29.85,SSE,150,18.0,25.0,78,-99.99,,,-99.99,,2013-05-27 02:32:00,
2013-05-26 21:41:00,75.0,70.0,29.84,SSE,150,14.0,22.0,83,-99.99,,,-99.99,,2013-05-27 02:41:00,
2013-05-26 21:42:00,77.0,70.0,29.84,SSE,150,17.0,24.0,78,-99.99,,,-99.99,,2013-05-27 02:42:00,
2013-05-26 21:52:00,75.0,70.0,29.84,SSE,150,14.0,22.0,83,-99.99,,,-99.99,,2013-05-27 02:52:00,
2013-05-26 22:02:00,75.0,70.0,29.84,SSE,150,14.0,22.0,83,-99.99,,,-99.99,,2013-05-27 03:02:00,
2013-05-26 22:11:00,75.0,70.0,29.84,SSE,150,14.0,22.0,83,-99.99,,,-99.99,,2013-05-27 03:11:00,
2013-05-26 22:21:00,75.0,70.0,29.84,SSE,150,14.0,22.0,83,-99.99,,,-99.99,,2013-05-27 03:21:00,
2013-05-26 22:33:00,75.0,70.0,29.84,SSE,150,14.0,22.0,83,-99.99,,,-99.99,,2013-05-27 03:33:00,